owner,sensor,date,latitude,longitude,vertical_datum,sea_water_practical_salinity,qcFlag 
SCCF RECON,ioos:station:SCCF:13:1,2009-11-01T00:00:00Z,26.5255,-82.0032,2.48,28.73,1111122 
SCCF RECON,ioos:station:SCCF:13:1,2009-11-01T01:00:00Z,26.5255,-82.0032,2.585,28.51,1111122 
SCCF RECON,ioos:station:SCCF:13:1,2009-11-01T02:00:00Z,26.5255,-82.0032,2.67,30.48,1111122 
SCCF RECON,ioos:station:SCCF:13:1,2009-11-01T03:00:00Z,26.5255,-82.0032,2.723,30.51,1111122 
SCCF RECON,ioos:station:SCCF:13:1,2009-11-01T04:00:00Z,26.5255,-82.0032,2.77,31.65,1111122 
SCCF RECON,ioos:station:SCCF:13:1,2009-11-01T05:00:00Z,26.5255,-82.0032,2.79,32.43,1111122 
SCCF RECON,ioos:station:SCCF:13:1,2009-11-01T06:00:00Z,26.5255,-82.0032,2.73,32.9,1111122 
SCCF RECON,ioos:station:SCCF:13:1,2009-11-01T07:00:00Z,26.5255,-82.0032,2.59,32.96,1111122 
SCCF RECON,ioos:station:SCCF:13:1,2009-11-01T08:00:00Z,26.5255,-82.0032,2.49,31.76,1111122 
SCCF RECON,ioos:station:SCCF:13:1,2009-11-01T09:00:00Z,26.5255,-82.0032,2.4,28.73,1111122 
SCCF RECON,ioos:station:SCCF:13:1,2009-11-01T10:00:00Z,26.5255,-82.0032,2.302,28.46,1111122 
SCCF RECON,ioos:station:SCCF:13:1,2009-11-01T11:00:00Z,26.5255,-82.0032,2.221,26.43,1111122 
SCCF RECON,ioos:station:SCCF:13:1,2009-11-01T12:00:00Z,26.5255,-82.0032,2.191,25.71,1111122 
SCCF RECON,ioos:station:SCCF:13:1,2009-11-01T13:00:00Z,26.5255,-82.0032,2.27,24.71,1111122 
SCCF RECON,ioos:station:SCCF:13:1,2009-11-01T14:00:00Z,26.5255,-82.0032,2.41,23.68,1111122 
SCCF RECON,ioos:station:SCCF:13:1,2009-11-01T15:00:00Z,26.5255,-82.0032,2.51,24.69,1111122 
SCCF RECON,ioos:station:SCCF:13:1,2009-11-01T16:00:00Z,26.5255,-82.0032,2.588,27.53,1111122 
SCCF RECON,ioos:station:SCCF:13:1,2009-11-01T17:00:00Z,26.5255,-82.0032,2.633,30.12,1111122 
SCCF RECON,ioos:station:SCCF:13:1,2009-11-01T18:00:00Z,26.5255,-82.0032,2.645,31.94,1111122 
SCCF RECON,ioos:station:SCCF:13:1,2009-11-01T19:00:00Z,26.5255,-82.0032,2.621,32.06,1111122 
SCCF RECON,ioos:station:SCCF:13:1,2009-11-01T20:00:00Z,26.5255,-82.0032,2.541,32.14,1111122 
SCCF RECON,ioos:station:SCCF:13:1,2009-11-01T21:00:00Z,26.5255,-82.0032,2.475,32.1,1111122 
SCCF RECON,ioos:station:SCCF:13:1,2009-11-01T22:00:00Z,26.5255,-82.0032,2.45,31.24,1111122 
SCCF RECON,ioos:station:SCCF:13:1,2009-11-01T23:00:00Z,26.5255,-82.0032,2.427,30.35,1111122 
SCCF RECON,ioos:station:SCCF:13:1,2009-11-02T00:00:00Z,26.5255,-82.0032,2.432,29.07,1111122 
SCCF RECON,ioos:station:SCCF:13:1,2009-11-02T01:00:00Z,26.5255,-82.0032,2.509,27.95,1111122 
SCCF RECON,ioos:station:SCCF:13:1,2009-11-02T02:00:00Z,26.5255,-82.0032,2.618,29.56,1111122 
SCCF RECON,ioos:station:SCCF:13:1,2009-11-02T03:00:00Z,26.5255,-82.0032,2.69,30.04,1111122 
SCCF RECON,ioos:station:SCCF:13:1,2009-11-02T04:00:00Z,26.5255,-82.0032,2.75,30.64,1111122 
SCCF RECON,ioos:station:SCCF:13:1,2009-11-02T05:00:00Z,26.5255,-82.0032,2.79,31.6,1111122 
SCCF RECON,ioos:station:SCCF:13:1,2009-11-02T06:00:00Z,26.5255,-82.0032,2.77,32.15,1111122 
SCCF RECON,ioos:station:SCCF:13:1,2009-11-02T07:00:00Z,26.5255,-82.0032,2.648,32.05,1111122 
SCCF RECON,ioos:station:SCCF:13:1,2009-11-02T08:00:00Z,26.5255,-82.0032,2.514,32.02,1111122 
SCCF RECON,ioos:station:SCCF:13:1,2009-11-02T09:00:00Z,26.5255,-82.0032,2.42,30.97,1111122 
SCCF RECON,ioos:station:SCCF:13:1,2009-11-02T10:00:00Z,26.5255,-82.0032,2.325,29.04,1111122 
SCCF RECON,ioos:station:SCCF:13:1,2009-11-02T11:00:00Z,26.5255,-82.0032,2.24,27.53,1111122 
SCCF RECON,ioos:station:SCCF:13:1,2009-11-02T12:00:00Z,26.5255,-82.0032,2.18,25.49,1111122 
SCCF RECON,ioos:station:SCCF:13:1,2009-11-02T13:00:00Z,26.5255,-82.0032,2.18,24.75,1111122 
SCCF RECON,ioos:station:SCCF:13:1,2009-11-02T14:00:00Z,26.5255,-82.0032,2.32,23.73,1111122 
SCCF RECON,ioos:station:SCCF:13:1,2009-11-02T15:00:00Z,26.5255,-82.0032,2.44,23.75,1111122 
SCCF RECON,ioos:station:SCCF:13:1,2009-11-02T16:00:00Z,26.5255,-82.0032,2.52,26.35,1111122 
SCCF RECON,ioos:station:SCCF:13:1,2009-11-02T17:00:00Z,26.5255,-82.0032,2.599,28.15,1111122 
SCCF RECON,ioos:station:SCCF:13:1,2009-11-02T18:00:00Z,26.5255,-82.0032,2.64,31.04,1111122 
SCCF RECON,ioos:station:SCCF:13:1,2009-11-02T19:00:00Z,26.5255,-82.0032,2.63,31.16,1111122 
SCCF RECON,ioos:station:SCCF:13:1,2009-11-02T20:00:00Z,26.5255,-82.0032,2.59,31.3,1111122 
SCCF RECON,ioos:station:SCCF:13:1,2009-11-02T21:00:00Z,26.5255,-82.0032,2.53,31.45,1111122 
SCCF RECON,ioos:station:SCCF:13:1,2009-11-02T22:00:00Z,26.5255,-82.0032,2.496,31.39,1111122 
SCCF RECON,ioos:station:SCCF:13:1,2009-11-02T23:00:00Z,26.5255,-82.0032,2.47,30.61,1111122 
SCCF RECON,ioos:station:SCCF:13:1,2009-11-03T00:00:00Z,26.5255,-82.0032,2.47,29.98,1111122 
SCCF RECON,ioos:station:SCCF:13:1,2009-11-03T01:00:00Z,26.5255,-82.0032,2.52,28.87,1111122 
SCCF RECON,ioos:station:SCCF:13:1,2009-11-03T02:00:00Z,26.5255,-82.0032,2.61,29.66,1111122 
SCCF RECON,ioos:station:SCCF:13:1,2009-11-03T03:00:00Z,26.5255,-82.0032,2.7,30.1,1111122 
SCCF RECON,ioos:station:SCCF:13:1,2009-11-03T04:00:00Z,26.5255,-82.0032,2.761,30.3,1111122 
SCCF RECON,ioos:station:SCCF:13:1,2009-11-03T05:00:00Z,26.5255,-82.0032,2.8,31.25,1111122 
SCCF RECON,ioos:station:SCCF:13:1,2009-11-03T06:00:00Z,26.5255,-82.0032,2.805,31.93,1111122 
SCCF RECON,ioos:station:SCCF:13:1,2009-11-03T07:00:00Z,26.5255,-82.0032,2.735,32.55,1111122 
SCCF RECON,ioos:station:SCCF:13:1,2009-11-03T08:00:00Z,26.5255,-82.0032,2.61,32.64,1111122 
SCCF RECON,ioos:station:SCCF:13:1,2009-11-03T09:00:00Z,26.5255,-82.0032,2.49,31.22,1111122 
SCCF RECON,ioos:station:SCCF:13:1,2009-11-03T10:00:00Z,26.5255,-82.0032,2.397,29.27,1111122 
SCCF RECON,ioos:station:SCCF:13:1,2009-11-03T11:00:00Z,26.5255,-82.0032,2.3,27.97,1111122 
SCCF RECON,ioos:station:SCCF:13:1,2009-11-03T12:00:00Z,26.5255,-82.0032,2.21,26.09,1111122 
SCCF RECON,ioos:station:SCCF:13:1,2009-11-03T13:00:00Z,26.5255,-82.0032,2.15,25.39,1111122 
SCCF RECON,ioos:station:SCCF:13:1,2009-11-03T14:00:00Z,26.5255,-82.0032,2.172,24.29,1111122 
SCCF RECON,ioos:station:SCCF:13:1,2009-11-03T15:00:00Z,26.5255,-82.0032,2.32,23.65,1111122 
SCCF RECON,ioos:station:SCCF:13:1,2009-11-03T16:00:00Z,26.5255,-82.0032,2.427,23.52,1111122 
SCCF RECON,ioos:station:SCCF:13:1,2009-11-03T17:00:00Z,26.5255,-82.0032,2.485,25.66,1111122 
SCCF RECON,ioos:station:SCCF:13:1,2009-11-03T18:00:00Z,26.5255,-82.0032,2.549,27.51,1111122 
SCCF RECON,ioos:station:SCCF:13:1,2009-11-03T19:00:00Z,26.5255,-82.0032,2.586,29.86,1111122 
SCCF RECON,ioos:station:SCCF:13:1,2009-11-03T20:00:00Z,26.5255,-82.0032,2.574,31.0,1111122 
SCCF RECON,ioos:station:SCCF:13:1,2009-11-03T21:00:00Z,26.5255,-82.0032,2.53,31.04,1111122 
SCCF RECON,ioos:station:SCCF:13:1,2009-11-03T22:00:00Z,26.5255,-82.0032,2.48,31.03,1111122 
SCCF RECON,ioos:station:SCCF:13:1,2009-11-03T23:00:00Z,26.5255,-82.0032,2.45,31.02,1111122 
SCCF RECON,ioos:station:SCCF:13:1,2009-11-04T00:00:00Z,26.5255,-82.0032,2.42,29.87,1111122 
SCCF RECON,ioos:station:SCCF:13:1,2009-11-04T01:00:00Z,26.5255,-82.0032,2.44,28.36,1111122 
SCCF RECON,ioos:station:SCCF:13:1,2009-11-04T02:00:00Z,26.5255,-82.0032,2.539,27.13,1111122 
SCCF RECON,ioos:station:SCCF:13:1,2009-11-04T03:00:00Z,26.5255,-82.0032,2.639,28.78,1111122 
SCCF RECON,ioos:station:SCCF:13:1,2009-11-04T04:00:00Z,26.5255,-82.0032,2.69,29.81,1111122 
SCCF RECON,ioos:station:SCCF:13:1,2009-11-04T05:00:00Z,26.5255,-82.0032,2.72,30.46,1111122 
SCCF RECON,ioos:station:SCCF:13:1,2009-11-04T06:00:00Z,26.5255,-82.0032,2.749,31.11,1111122 
SCCF RECON,ioos:station:SCCF:13:1,2009-11-04T07:00:00Z,26.5255,-82.0032,2.715,31.81,1111122 
SCCF RECON,ioos:station:SCCF:13:1,2009-11-04T08:00:00Z,26.5255,-82.0032,2.6,32.35,1111122 
SCCF RECON,ioos:station:SCCF:13:1,2009-11-04T09:00:00Z,26.5255,-82.0032,2.47,30.84,1111122 
SCCF RECON,ioos:station:SCCF:13:1,2009-11-04T10:00:00Z,26.5255,-82.0032,2.37,27.19,1111122 
SCCF RECON,ioos:station:SCCF:13:1,2009-11-04T11:00:00Z,26.5255,-82.0032,2.271,27.41,1111122 
SCCF RECON,ioos:station:SCCF:13:1,2009-11-04T12:00:00Z,26.5255,-82.0032,2.18,25.92,1111122 
SCCF RECON,ioos:station:SCCF:13:1,2009-11-04T13:00:00Z,26.5255,-82.0032,2.09,25.3,1111122 
SCCF RECON,ioos:station:SCCF:13:1,2009-11-04T14:00:00Z,26.5255,-82.0032,2.04,24.3,1111122 
SCCF RECON,ioos:station:SCCF:13:1,2009-11-04T15:00:00Z,26.5255,-82.0032,2.102,23.42,1111122 
SCCF RECON,ioos:station:SCCF:13:1,2009-11-04T16:00:00Z,26.5255,-82.0032,2.256,22.72,1111122 
SCCF RECON,ioos:station:SCCF:13:1,2009-11-04T17:00:00Z,26.5255,-82.0032,2.348,23.19,1111122 
SCCF RECON,ioos:station:SCCF:13:1,2009-11-04T18:00:00Z,26.5255,-82.0032,2.422,24.88,1111122 
SCCF RECON,ioos:station:SCCF:13:1,2009-11-04T19:00:00Z,26.5255,-82.0032,2.48,27.57,1111122 
SCCF RECON,ioos:station:SCCF:13:1,2009-11-04T20:00:00Z,26.5255,-82.0032,2.51,29.71,1111122 
SCCF RECON,ioos:station:SCCF:13:1,2009-11-04T21:00:00Z,26.5255,-82.0032,2.519,30.25,1111122 
SCCF RECON,ioos:station:SCCF:13:1,2009-11-04T22:00:00Z,26.5255,-82.0032,2.52,30.46,1111122 
SCCF RECON,ioos:station:SCCF:13:1,2009-11-04T23:00:00Z,26.5255,-82.0032,2.51,30.7,1111122 
SCCF RECON,ioos:station:SCCF:13:1,2009-11-05T00:00:00Z,26.5255,-82.0032,2.482,30.98,1111122 
SCCF RECON,ioos:station:SCCF:13:1,2009-11-05T01:00:00Z,26.5255,-82.0032,2.47,31.11,1111122 
SCCF RECON,ioos:station:SCCF:13:1,2009-11-05T02:00:00Z,26.5255,-82.0032,2.51,30.3,1111122 
SCCF RECON,ioos:station:SCCF:13:1,2009-11-05T03:00:00Z,26.5255,-82.0032,2.6,30.52,1111122 
SCCF RECON,ioos:station:SCCF:13:1,2009-11-05T04:00:00Z,26.5255,-82.0032,2.689,31.09,1111122 
SCCF RECON,ioos:station:SCCF:13:1,2009-11-05T05:00:00Z,26.5255,-82.0032,2.73,31.45,1111122 
SCCF RECON,ioos:station:SCCF:13:1,2009-11-05T06:00:00Z,26.5255,-82.0032,2.76,31.96,1111122 
SCCF RECON,ioos:station:SCCF:13:1,2009-11-05T07:00:00Z,26.5255,-82.0032,2.75,32.21,1111122 
SCCF RECON,ioos:station:SCCF:13:1,2009-11-05T08:00:00Z,26.5255,-82.0032,2.71,32.41,1111122 
SCCF RECON,ioos:station:SCCF:13:1,2009-11-05T09:00:00Z,26.5255,-82.0032,2.595,32.5,1111122 
SCCF RECON,ioos:station:SCCF:13:1,2009-11-05T10:00:00Z,26.5255,-82.0032,2.48,30.63,1111122 
SCCF RECON,ioos:station:SCCF:13:1,2009-11-05T11:00:00Z,26.5255,-82.0032,2.387,27.65,1111122 
SCCF RECON,ioos:station:SCCF:13:1,2009-11-05T12:00:00Z,26.5255,-82.0032,2.281,27.9,1111122 
SCCF RECON,ioos:station:SCCF:13:1,2009-11-05T13:00:00Z,26.5255,-82.0032,2.181,26.34,1111122 
SCCF RECON,ioos:station:SCCF:13:1,2009-11-05T14:00:00Z,26.5255,-82.0032,2.1,25.56,1111122 
SCCF RECON,ioos:station:SCCF:13:1,2009-11-05T15:00:00Z,26.5255,-82.0032,2.057,24.92,1111122 
SCCF RECON,ioos:station:SCCF:13:1,2009-11-05T16:00:00Z,26.5255,-82.0032,2.106,23.91,1111122 
SCCF RECON,ioos:station:SCCF:13:1,2009-11-05T17:00:00Z,26.5255,-82.0032,2.2,23.31,1111122 
SCCF RECON,ioos:station:SCCF:13:1,2009-11-05T18:00:00Z,26.5255,-82.0032,2.29,23.02,1111122 
SCCF RECON,ioos:station:SCCF:13:1,2009-11-05T19:00:00Z,26.5255,-82.0032,2.36,24.49,1111122 
SCCF RECON,ioos:station:SCCF:13:1,2009-11-05T20:00:00Z,26.5255,-82.0032,2.413,25.94,1111122 
SCCF RECON,ioos:station:SCCF:13:1,2009-11-05T21:00:00Z,26.5255,-82.0032,2.441,28.07,1111122 
SCCF RECON,ioos:station:SCCF:13:1,2009-11-05T22:00:00Z,26.5255,-82.0032,2.441,29.2,1111122 
SCCF RECON,ioos:station:SCCF:13:1,2009-11-05T23:00:00Z,26.5255,-82.0032,2.41,30.01,1111122 
SCCF RECON,ioos:station:SCCF:13:1,2009-11-06T00:00:00Z,26.5255,-82.0032,2.382,30.28,1111122 
SCCF RECON,ioos:station:SCCF:13:1,2009-11-06T01:00:00Z,26.5255,-82.0032,2.4,30.34,1111122 
SCCF RECON,ioos:station:SCCF:13:1,2009-11-06T02:00:00Z,26.5255,-82.0032,2.409,29.29,1111122 
SCCF RECON,ioos:station:SCCF:13:1,2009-11-06T03:00:00Z,26.5255,-82.0032,2.41,28.33,1111122 
SCCF RECON,ioos:station:SCCF:13:1,2009-11-06T04:00:00Z,26.5255,-82.0032,2.48,28.76,1111122 
SCCF RECON,ioos:station:SCCF:13:1,2009-11-06T05:00:00Z,26.5255,-82.0032,2.54,29.97,1111122 
SCCF RECON,ioos:station:SCCF:13:1,2009-11-06T06:00:00Z,26.5255,-82.0032,2.56,30.47,1111122 
SCCF RECON,ioos:station:SCCF:13:1,2009-11-06T07:00:00Z,26.5255,-82.0032,2.576,30.68,1111122 
SCCF RECON,ioos:station:SCCF:13:1,2009-11-06T08:00:00Z,26.5255,-82.0032,2.561,30.93,1111122 
SCCF RECON,ioos:station:SCCF:13:1,2009-11-06T09:00:00Z,26.5255,-82.0032,2.52,31.24,1111122 
SCCF RECON,ioos:station:SCCF:13:1,2009-11-06T10:00:00Z,26.5255,-82.0032,2.43,31.09,1111122 
SCCF RECON,ioos:station:SCCF:13:1,2009-11-06T11:00:00Z,26.5255,-82.0032,2.337,29.41,1111122 
SCCF RECON,ioos:station:SCCF:13:1,2009-11-06T12:00:00Z,26.5255,-82.0032,2.245,25.27,1111122 
SCCF RECON,ioos:station:SCCF:13:1,2009-11-06T13:00:00Z,26.5255,-82.0032,2.149,26.41,1111122 
SCCF RECON,ioos:station:SCCF:13:1,2009-11-06T14:00:00Z,26.5255,-82.0032,2.05,25.75,1111122 
SCCF RECON,ioos:station:SCCF:13:1,2009-11-06T15:00:00Z,26.5255,-82.0032,1.98,24.6,1111122 
SCCF RECON,ioos:station:SCCF:13:1,2009-11-06T16:00:00Z,26.5255,-82.0032,1.95,23.78,1111122 
SCCF RECON,ioos:station:SCCF:13:1,2009-11-06T17:00:00Z,26.5255,-82.0032,2.02,22.74,1111122 
SCCF RECON,ioos:station:SCCF:13:1,2009-11-06T18:00:00Z,26.5255,-82.0032,2.14,22.2,1111122 
SCCF RECON,ioos:station:SCCF:13:1,2009-11-06T19:00:00Z,26.5255,-82.0032,2.222,22.28,1111122 
SCCF RECON,ioos:station:SCCF:13:1,2009-11-06T20:00:00Z,26.5255,-82.0032,2.279,23.95,1111122 
SCCF RECON,ioos:station:SCCF:13:1,2009-11-06T21:00:00Z,26.5255,-82.0032,2.324,26.18,1111122 
SCCF RECON,ioos:station:SCCF:13:1,2009-11-06T22:00:00Z,26.5255,-82.0032,2.359,27.71,1111122 
SCCF RECON,ioos:station:SCCF:13:1,2009-11-06T23:00:00Z,26.5255,-82.0032,2.369,29.02,1111122 
SCCF RECON,ioos:station:SCCF:13:1,2009-11-07T00:00:00Z,26.5255,-82.0032,2.357,29.61,1111122 
SCCF RECON,ioos:station:SCCF:13:1,2009-11-07T01:00:00Z,26.5255,-82.0032,2.34,29.69,1111122 
SCCF RECON,ioos:station:SCCF:13:1,2009-11-07T02:00:00Z,26.5255,-82.0032,2.33,29.59,1111122 
SCCF RECON,ioos:station:SCCF:13:1,2009-11-07T03:00:00Z,26.5255,-82.0032,2.361,29.79,1111122 
SCCF RECON,ioos:station:SCCF:13:1,2009-11-07T04:00:00Z,26.5255,-82.0032,2.43,30.01,1111122 
SCCF RECON,ioos:station:SCCF:13:1,2009-11-07T05:00:00Z,26.5255,-82.0032,2.49,30.04,1111122 
SCCF RECON,ioos:station:SCCF:13:1,2009-11-07T06:00:00Z,26.5255,-82.0032,2.55,30.1,1111122 
SCCF RECON,ioos:station:SCCF:13:1,2009-11-07T07:00:00Z,26.5255,-82.0032,2.58,30.45,1111122 
SCCF RECON,ioos:station:SCCF:13:1,2009-11-07T08:00:00Z,26.5255,-82.0032,2.63,30.79,1111122 
SCCF RECON,ioos:station:SCCF:13:1,2009-11-07T09:00:00Z,26.5255,-82.0032,2.65,31.35,1111122 
SCCF RECON,ioos:station:SCCF:13:1,2009-11-07T10:00:00Z,26.5255,-82.0032,2.63,31.71,1111122 
SCCF RECON,ioos:station:SCCF:13:1,2009-11-07T11:00:00Z,26.5255,-82.0032,2.542,31.84,1111122 
SCCF RECON,ioos:station:SCCF:13:1,2009-11-07T12:00:00Z,26.5255,-82.0032,2.43,30.74,1111122 
SCCF RECON,ioos:station:SCCF:13:1,2009-11-07T13:00:00Z,26.5255,-82.0032,2.339,27.0,1111122 
SCCF RECON,ioos:station:SCCF:13:1,2009-11-07T14:00:00Z,26.5255,-82.0032,2.25,28.25,1111122 
SCCF RECON,ioos:station:SCCF:13:1,2009-11-07T15:00:00Z,26.5255,-82.0032,2.16,27.87,1111122 
SCCF RECON,ioos:station:SCCF:13:1,2009-11-07T16:00:00Z,26.5255,-82.0032,2.09,26.47,1111122 
SCCF RECON,ioos:station:SCCF:13:1,2009-11-07T17:00:00Z,26.5255,-82.0032,2.08,25.88,1111122 
SCCF RECON,ioos:station:SCCF:13:1,2009-11-07T18:00:00Z,26.5255,-82.0032,2.17,25.57,1111122 
SCCF RECON,ioos:station:SCCF:13:1,2009-11-07T19:00:00Z,26.5255,-82.0032,2.269,25.25,1111122 
SCCF RECON,ioos:station:SCCF:13:1,2009-11-07T20:00:00Z,26.5255,-82.0032,2.344,25.51,1111122 
SCCF RECON,ioos:station:SCCF:13:1,2009-11-07T21:00:00Z,26.5255,-82.0032,2.386,26.77,1111122 
SCCF RECON,ioos:station:SCCF:13:1,2009-11-07T22:00:00Z,26.5255,-82.0032,2.425,28.1,1111122 
SCCF RECON,ioos:station:SCCF:13:1,2009-11-07T23:00:00Z,26.5255,-82.0032,2.45,29.83,1111122 
SCCF RECON,ioos:station:SCCF:13:1,2009-11-08T00:00:00Z,26.5255,-82.0032,2.413,30.59,1111122 
SCCF RECON,ioos:station:SCCF:13:1,2009-11-08T01:00:00Z,26.5255,-82.0032,2.38,30.83,1111122 
SCCF RECON,ioos:station:SCCF:13:1,2009-11-08T02:00:00Z,26.5255,-82.0032,2.35,31.14,1111122 
SCCF RECON,ioos:station:SCCF:13:1,2009-11-08T03:00:00Z,26.5255,-82.0032,2.34,31.28,1111122 
SCCF RECON,ioos:station:SCCF:13:1,2009-11-08T04:00:00Z,26.5255,-82.0032,2.35,30.09,1111122 
SCCF RECON,ioos:station:SCCF:13:1,2009-11-08T05:00:00Z,26.5255,-82.0032,2.41,30.47,1111122 
SCCF RECON,ioos:station:SCCF:13:1,2009-11-08T06:00:00Z,26.5255,-82.0032,2.47,30.93,1111122 
SCCF RECON,ioos:station:SCCF:13:1,2009-11-08T07:00:00Z,26.5255,-82.0032,2.56,31.24,1111122 
SCCF RECON,ioos:station:SCCF:13:1,2009-11-08T08:00:00Z,26.5255,-82.0032,2.622,31.26,1111122 
SCCF RECON,ioos:station:SCCF:13:1,2009-11-08T09:00:00Z,26.5255,-82.0032,2.652,31.47,1111122 
SCCF RECON,ioos:station:SCCF:13:1,2009-11-08T10:00:00Z,26.5255,-82.0032,2.66,31.97,1111122 
SCCF RECON,ioos:station:SCCF:13:1,2009-11-08T11:00:00Z,26.5255,-82.0032,2.628,32.42,1111122 
SCCF RECON,ioos:station:SCCF:13:1,2009-11-08T12:00:00Z,26.5255,-82.0032,2.54,32.42,1111122 
SCCF RECON,ioos:station:SCCF:13:1,2009-11-08T13:00:00Z,26.5255,-82.0032,2.45,31.74,1111122 
SCCF RECON,ioos:station:SCCF:13:1,2009-11-08T14:00:00Z,26.5255,-82.0032,2.362,29.19,1111122 
SCCF RECON,ioos:station:SCCF:13:1,2009-11-08T15:00:00Z,26.5255,-82.0032,2.27,29.18,1111122 
SCCF RECON,ioos:station:SCCF:13:1,2009-11-08T16:00:00Z,26.5255,-82.0032,2.19,29.29,1111122 
SCCF RECON,ioos:station:SCCF:13:1,2009-11-08T17:00:00Z,26.5255,-82.0032,2.132,28.3,1111122 
SCCF RECON,ioos:station:SCCF:13:1,2009-11-08T18:00:00Z,26.5255,-82.0032,2.15,27.13,1111122 
SCCF RECON,ioos:station:SCCF:13:1,2009-11-08T19:00:00Z,26.5255,-82.0032,2.25,26.49,1111122 
SCCF RECON,ioos:station:SCCF:13:1,2009-11-08T20:00:00Z,26.5255,-82.0032,2.311,26.29,1111122 
SCCF RECON,ioos:station:SCCF:13:1,2009-11-08T21:00:00Z,26.5255,-82.0032,2.358,26.8,1111122 
SCCF RECON,ioos:station:SCCF:13:1,2009-11-08T22:00:00Z,26.5255,-82.0032,2.419,28.38,1111122 
SCCF RECON,ioos:station:SCCF:13:1,2009-11-08T23:00:00Z,26.5255,-82.0032,2.468,29.9,1111122 
SCCF RECON,ioos:station:SCCF:13:1,2009-11-09T00:00:00Z,26.5255,-82.0032,2.486,31.76,1111122 
SCCF RECON,ioos:station:SCCF:13:1,2009-11-09T01:00:00Z,26.5255,-82.0032,2.503,32.44,1111122 
SCCF RECON,ioos:station:SCCF:13:1,2009-11-09T02:00:00Z,26.5255,-82.0032,2.462,32.62,1111122 
SCCF RECON,ioos:station:SCCF:13:1,2009-11-09T03:00:00Z,26.5255,-82.0032,2.434,32.54,1111122 
SCCF RECON,ioos:station:SCCF:13:1,2009-11-09T04:00:00Z,26.5255,-82.0032,2.434,32.48,1111122 
SCCF RECON,ioos:station:SCCF:13:1,2009-11-09T05:00:00Z,26.5255,-82.0032,2.46,32.11,1111122 
SCCF RECON,ioos:station:SCCF:13:1,2009-11-09T06:00:00Z,26.5255,-82.0032,2.501,32.17,1111122 
SCCF RECON,ioos:station:SCCF:13:1,2009-11-09T07:00:00Z,26.5255,-82.0032,2.551,32.4,1111122 
SCCF RECON,ioos:station:SCCF:13:1,2009-11-09T08:00:00Z,26.5255,-82.0032,2.62,32.35,1111122 
SCCF RECON,ioos:station:SCCF:13:1,2009-11-09T09:00:00Z,26.5255,-82.0032,2.687,33.21,1111122 
SCCF RECON,ioos:station:SCCF:13:1,2009-11-09T10:00:00Z,26.5255,-82.0032,2.75,33.84,1111122 
SCCF RECON,ioos:station:SCCF:13:1,2009-11-09T11:00:00Z,26.5255,-82.0032,2.8,34.59,1111122 
SCCF RECON,ioos:station:SCCF:13:1,2009-11-09T12:00:00Z,26.5255,-82.0032,2.796,34.79,1111122 
SCCF RECON,ioos:station:SCCF:13:1,2009-11-09T13:00:00Z,26.5255,-82.0032,2.73,34.81,1111122 
SCCF RECON,ioos:station:SCCF:13:1,2009-11-09T14:00:00Z,26.5255,-82.0032,2.643,34.61,1111122 
SCCF RECON,ioos:station:SCCF:13:1,2009-11-09T15:00:00Z,26.5255,-82.0032,2.557,33.72,1111122 
SCCF RECON,ioos:station:SCCF:13:1,2009-11-09T16:00:00Z,26.5255,-82.0032,2.468,32.05,1111122 
SCCF RECON,ioos:station:SCCF:13:1,2009-11-09T17:00:00Z,26.5255,-82.0032,2.389,32.04,1111122 
SCCF RECON,ioos:station:SCCF:13:1,2009-11-09T18:00:00Z,26.5255,-82.0032,2.36,32.27,1111122 
SCCF RECON,ioos:station:SCCF:13:1,2009-11-09T19:00:00Z,26.5255,-82.0032,2.41,31.6,1111122 
SCCF RECON,ioos:station:SCCF:13:1,2009-11-09T20:00:00Z,26.5255,-82.0032,2.49,31.31,1111122 
SCCF RECON,ioos:station:SCCF:13:1,2009-11-09T21:00:00Z,26.5255,-82.0032,2.559,31.83,1111122 
SCCF RECON,ioos:station:SCCF:13:1,2009-11-09T22:00:00Z,26.5255,-82.0032,2.62,32.23,1111122 
SCCF RECON,ioos:station:SCCF:13:1,2009-11-09T23:00:00Z,26.5255,-82.0032,2.69,32.97,1111122 
SCCF RECON,ioos:station:SCCF:13:1,2009-11-10T00:00:00Z,26.5255,-82.0032,2.75,34.6,1111122 
SCCF RECON,ioos:station:SCCF:13:1,2009-11-10T01:00:00Z,26.5255,-82.0032,2.789,34.67,1111122 
SCCF RECON,ioos:station:SCCF:13:1,2009-11-10T02:00:00Z,26.5255,-82.0032,2.785,34.7,1111122 
SCCF RECON,ioos:station:SCCF:13:1,2009-11-10T03:00:00Z,26.5255,-82.0032,2.731,34.7,1111122 
SCCF RECON,ioos:station:SCCF:13:1,2009-11-10T04:00:00Z,26.5255,-82.0032,2.68,34.53,1111122 
SCCF RECON,ioos:station:SCCF:13:1,2009-11-10T05:00:00Z,26.5255,-82.0032,2.634,34.65,1111122 
SCCF RECON,ioos:station:SCCF:13:1,2009-11-10T06:00:00Z,26.5255,-82.0032,2.62,33.73,1111122 
SCCF RECON,ioos:station:SCCF:13:1,2009-11-10T07:00:00Z,26.5255,-82.0032,2.57,32.3,1111122 
SCCF RECON,ioos:station:SCCF:13:1,2009-11-10T08:00:00Z,26.5255,-82.0032,2.59,32.39,1111122 
SCCF RECON,ioos:station:SCCF:13:1,2009-11-10T09:00:00Z,26.5255,-82.0032,2.65,32.4,1111122 
SCCF RECON,ioos:station:SCCF:13:1,2009-11-10T10:00:00Z,26.5255,-82.0032,2.71,33.56,1111122 
SCCF RECON,ioos:station:SCCF:13:1,2009-11-10T11:00:00Z,26.5255,-82.0032,2.74,34.14,1111122 
SCCF RECON,ioos:station:SCCF:13:1,2009-11-10T12:00:00Z,26.5255,-82.0032,2.77,34.28,1111122 
SCCF RECON,ioos:station:SCCF:13:1,2009-11-10T13:00:00Z,26.5255,-82.0032,2.811,34.63,1111122 
SCCF RECON,ioos:station:SCCF:13:1,2009-11-10T14:00:00Z,26.5255,-82.0032,2.82,34.62,1111122 
SCCF RECON,ioos:station:SCCF:13:1,2009-11-10T15:00:00Z,26.5255,-82.0032,2.741,34.59,1111122 
SCCF RECON,ioos:station:SCCF:13:1,2009-11-10T16:00:00Z,26.5255,-82.0032,2.67,34.6,1111122 
SCCF RECON,ioos:station:SCCF:13:1,2009-11-10T17:00:00Z,26.5255,-82.0032,2.588,34.37,1111122 
SCCF RECON,ioos:station:SCCF:13:1,2009-11-10T18:00:00Z,26.5255,-82.0032,2.51,33.26,1111122 
SCCF RECON,ioos:station:SCCF:13:1,2009-11-10T19:00:00Z,26.5255,-82.0032,2.46,32.95,1111122 
SCCF RECON,ioos:station:SCCF:13:1,2009-11-10T20:00:00Z,26.5255,-82.0032,2.47,32.73,1111122 
SCCF RECON,ioos:station:SCCF:13:1,2009-11-10T21:00:00Z,26.5255,-82.0032,2.561,32.34,1111122 
SCCF RECON,ioos:station:SCCF:13:1,2009-11-10T22:00:00Z,26.5255,-82.0032,2.63,32.74,1111122 
SCCF RECON,ioos:station:SCCF:13:1,2009-11-10T23:00:00Z,26.5255,-82.0032,2.69,33.1,1111122 
SCCF RECON,ioos:station:SCCF:13:1,2009-11-11T00:00:00Z,26.5255,-82.0032,2.75,33.85,1111122 
SCCF RECON,ioos:station:SCCF:13:1,2009-11-11T01:00:00Z,26.5255,-82.0032,2.81,34.4,1111122 
SCCF RECON,ioos:station:SCCF:13:1,2009-11-11T02:00:00Z,26.5255,-82.0032,2.82,34.47,1111122 
SCCF RECON,ioos:station:SCCF:13:1,2009-11-11T03:00:00Z,26.5255,-82.0032,2.77,34.47,1111122 
SCCF RECON,ioos:station:SCCF:13:1,2009-11-11T04:00:00Z,26.5255,-82.0032,2.701,34.04,1111122 
SCCF RECON,ioos:station:SCCF:13:1,2009-11-11T05:00:00Z,26.5255,-82.0032,2.63,34.46,1111122 
SCCF RECON,ioos:station:SCCF:13:1,2009-11-11T06:00:00Z,26.5255,-82.0032,2.573,34.08,1111122 
SCCF RECON,ioos:station:SCCF:13:1,2009-11-11T07:00:00Z,26.5255,-82.0032,2.51,33.47,1111122 
SCCF RECON,ioos:station:SCCF:13:1,2009-11-11T08:00:00Z,26.5255,-82.0032,2.47,33.11,1111122 
SCCF RECON,ioos:station:SCCF:13:1,2009-11-11T09:00:00Z,26.5255,-82.0032,2.49,32.54,1111122 
SCCF RECON,ioos:station:SCCF:13:1,2009-11-11T10:00:00Z,26.5255,-82.0032,2.61,32.32,1111122 
SCCF RECON,ioos:station:SCCF:13:1,2009-11-11T11:00:00Z,26.5255,-82.0032,2.67,32.95,1111122 
SCCF RECON,ioos:station:SCCF:13:1,2009-11-11T12:00:00Z,26.5255,-82.0032,2.66,33.23,1111122 
SCCF RECON,ioos:station:SCCF:13:1,2009-11-11T13:00:00Z,26.5255,-82.0032,2.67,33.59,1111122 
SCCF RECON,ioos:station:SCCF:13:1,2009-11-11T14:00:00Z,26.5255,-82.0032,2.703,33.88,1111122 
SCCF RECON,ioos:station:SCCF:13:1,2009-11-11T15:00:00Z,26.5255,-82.0032,2.71,33.98,1111122 
SCCF RECON,ioos:station:SCCF:13:1,2009-11-11T16:00:00Z,26.5255,-82.0032,2.66,34.01,1111122 
SCCF RECON,ioos:station:SCCF:13:1,2009-11-11T17:00:00Z,26.5255,-82.0032,2.57,33.95,1111122 
SCCF RECON,ioos:station:SCCF:13:1,2009-11-11T18:00:00Z,26.5255,-82.0032,2.48,33.3,1111122 